Location: Clyde
(45.1830°S, 169.3170°E)
Time: 18:01:48
(UTC+12:00)

Lacrosse 5 - Pass Details

Date: 14 May 2021
Orbit: 715 x 724 km, 57.0° (Epoch: 13 June)

Event Time Altitude Azimuth Distance (km) Brightness Sun altitude
Rises 21:09:43 0° 237° (WSW) 3,157 6.0 -39.5°
Reaches altitude 10° 21:12:27 10° 250° (WSW) 2,228 5.1 -39.9°
Enters shadow 21:13:52 17° 261° (W) 1,817 4.5 -40.2°
